Weather History for San Antonio Stinson, TX

Change the Weather History Date:

Friday, March 22, 2013

  Actual Average Record
Temperature  
Mean Temperature 75 °F -  
Max Temperature 88 °F 69 °F 88 °F (2013)
Min Temperature 64 °F 50 °F 37 °F (2002)
Cooling Degree Days 10    
Growing Degree Days 25 (Base 50)    
Moisture  
Dew Point 65 °F    
Average Humidity 85    
Maximum Humidity 100    
Minimum Humidity 41    
Precipitation  
Precipitation 0.00 in - - ()
Sea Level Pressure  
Sea Level Pressure 29.66 in    
Wind  
Wind Speed 4 mph (SSE)    
Max Wind Speed 12 mph    
Max Gust Speed -    
Visibility 6 miles    
Events      
Averages and records for this station are not official NWS values.
T = Trace of Precipitation, MM = Missing Value Source: NWS Daily Summary

Daily Weather History Graph

Daily Weather History Graph

Search for Another Location

Airport:

Trip Planner

Search our weather history database for the weather conditions in past years. The results will help you decide how hot, cold, wet, or windy it might be!

Date:

Astronomy

Mar. 22, 2013 Rise Set
Actual Time 7:35 AM CDT 7:46 PM CDT
Civil Twilight 7:11 AM CDT 8:10 PM CDT
Nautical Twilight 6:43 AM CDT 8:38 PM CDT
Astronomical Twilight 6:15 AM CDT 9:06 PM CDT
Moon 3:33 PM CDT (3/22) 4:17 AM CDT (3/22)
Length of Visible Light 12h 59m
Length of Day
12h 11m
Waxing Gibbous, 77% of the Moon is Illuminated
Mar 22
Waxing Gibbous
Mar 27
Full
Apr 2
Last Quarter
Apr 10
New
Apr 18
First Quarter

Hourly Weather History & Observations

Time (CDT) Temp. Heat Index Dew Point Humidity Pressure Visibility Wind Dir Wind Speed Gust Speed Precip Events Conditions
12:53 AM 64.9 °F - 62.1 °F 90% 29.64 in 10.0 mi SSE 5.8 mph - N/A   Overcast
1:42 AM 64.4 °F - 62.6 °F 94% 29.66 in 9.0 mi SSE 5.8 mph - N/A   Overcast
1:53 AM 64.9 °F - 63.0 °F 93% 29.64 in 9.0 mi South 5.8 mph - N/A   Overcast
2:53 AM 64.9 °F - 63.0 °F 93% 29.65 in 8.0 mi Calm Calm - N/A   Overcast
3:53 AM 64.9 °F - 63.0 °F 93% 29.63 in 8.0 mi Calm Calm - N/A   Overcast
4:02 AM 64.4 °F - 62.6 °F 94% 29.65 in 8.0 mi SSE 3.5 mph - N/A   Overcast
4:34 AM 64.4 °F - 62.6 °F 94% 29.65 in 8.0 mi SSE 3.5 mph - N/A   Overcast
4:53 AM 64.9 °F - 64.0 °F 97% 29.62 in 7.0 mi SSE 5.8 mph - N/A   Overcast
5:53 AM 64.9 °F - 64.0 °F 97% 29.63 in 4.0 mi South 3.5 mph - N/A   Overcast
6:14 AM 64.4 °F - 64.4 °F 100% 29.66 in 2.5 mi SSW 4.6 mph - N/A   Overcast
6:25 AM 66.2 °F - 64.4 °F 94% 29.66 in 3.0 mi South 4.6 mph - N/A   Overcast
6:38 AM 64.4 °F - 64.4 °F 100% 29.66 in 2.5 mi South 4.6 mph - N/A   Overcast
6:46 AM 64.4 °F - 64.4 °F 100% 29.66 in 2.5 mi Calm Calm - N/A   Overcast
6:53 AM 64.9 °F - 64.9 °F 100% 29.64 in 2.5 mi South 3.5 mph - N/A   Overcast
7:08 AM 64.4 °F - 64.4 °F 100% 29.67 in 3.0 mi Calm Calm - N/A   Overcast
7:35 AM 66.2 °F - 66.2 °F 100% 29.67 in 4.0 mi SSE 4.6 mph - N/A   Overcast
7:53 AM 66.0 °F - 66.0 °F 100% 29.66 in 2.5 mi SE 3.5 mph - N/A   Overcast
8:38 AM 66.2 °F - 66.2 °F 100% 29.69 in 1.8 mi SSE 3.5 mph - N/A   Overcast
8:53 AM 66.0 °F - 66.0 °F 100% 29.68 in 1.8 mi Calm Calm - N/A   Overcast
9:00 AM 66.2 °F - 66.2 °F 100% 29.70 in 2.0 mi SSE 3.5 mph - N/A   Overcast
9:14 AM 66.2 °F - 66.2 °F 100% 29.70 in 1.8 mi Calm Calm - N/A   Overcast
9:21 AM 66.2 °F - 66.2 °F 100% 29.70 in 2.5 mi Calm Calm - N/A   Overcast
9:53 AM 66.9 °F - 66.9 °F 100% 29.69 in 2.5 mi SSW 3.5 mph - N/A   Overcast
10:33 AM 68.0 °F - 66.2 °F 94% 29.72 in 3.0 mi SSW 4.6 mph - N/A   Overcast
10:53 AM 68.0 °F - 66.9 °F 96% 29.71 in 5.0 mi Calm Calm - N/A   Overcast
11:21 AM 69.8 °F - 66.2 °F 88% 29.72 in 7.0 mi Calm Calm - N/A   Overcast
11:41 AM 71.6 °F - 66.2 °F 83% 29.72 in 8.0 mi South 5.8 mph - N/A   Overcast
11:53 AM 72.0 °F - 66.9 °F 84% 29.70 in 10.0 mi South 4.6 mph - N/A   Overcast
12:37 PM 75.2 °F - 64.4 °F 69% 29.71 in 10.0 mi South 5.8 mph - N/A   Scattered Clouds
12:53 PM 75.9 °F - 64.9 °F 69% 29.69 in 10.0 mi Calm Calm - N/A   Mostly Cloudy
1:16 PM 78.8 °F - 64.4 °F 61% 29.70 in 10.0 mi Variable 3.5 mph - N/A   Scattered Clouds
1:53 PM 78.1 °F - 64.0 °F 62% 29.65 in 10.0 mi South 6.9 mph - N/A   Mostly Cloudy
2:53 PM 82.9 °F 84.4 °F 64.0 °F 53% 29.62 in 10.0 mi SE 3.5 mph - N/A   Clear
3:53 PM 84.9 °F 85.9 °F 63.0 °F 48% 29.60 in 10.0 mi SE 4.6 mph - N/A   Clear
4:53 PM 86.0 °F 85.7 °F 60.1 °F 41% 29.59 in 10.0 mi ENE 6.9 mph - N/A   Clear
5:53 PM 86.0 °F 85.7 °F 60.1 °F 41% 29.58 in 10.0 mi ESE 4.6 mph - N/A   Clear
6:53 PM 84.9 °F 84.4 °F 59.0 °F 41% 29.58 in 10.0 mi SE 8.1 mph - N/A   Clear
7:53 PM 80.1 °F 81.9 °F 64.9 °F 60% 29.60 in 8.0 mi SE 11.5 mph - N/A   Clear
8:53 PM 75.9 °F - 66.0 °F 71% 29.63 in 7.0 mi ESE 10.4 mph - N/A   Clear
9:53 PM 73.0 °F - 66.0 °F 79% 29.66 in 7.0 mi ESE 11.5 mph - N/A   Clear
10:53 PM 72.0 °F - 68.0 °F 87% 29.68 in 7.0 mi ESE 10.4 mph - N/A   Partly Cloudy
11:02 PM 71.6 °F - 69.8 °F 94% 29.70 in 7.0 mi East 9.2 mph - N/A   Mostly Cloudy
11:53 PM 72.0 °F - 69.1 °F 91% 29.68 in 6.0 mi East 9.2 mph - N/A   Overcast